{"data":{"norad_id":68805,"intl_designator":"2026-089D","name":"STARLINK-36832","alt_names":[],"object_type":"PAYLOAD","status":"ACTIVE","operator":null,"country":"US","launch_date":"2026-04-23","launch_site_code":"AFWTR","launch_vehicle":null,"mission":null,"orbit_class":"UNKNOWN","rcs_meters":null,"size_class":null,"mass_kg":null,"dimensions":null,"purposes":["comms"],"wikipedia_slug":null,"has_3d_model":false,"image_url":null,"decayed_at":null,"tle_current":{"epoch":"2026-05-25T04:00:03.998880Z","epoch_age_seconds":60674,"freshness":"FRESH","line1":"1 68805U 26089D   26145.16671295 -.00101602  00000+0 -68733-3 0  9998","line2":"2 68805  97.2851 351.8065 0001343  89.2414 181.4753 15.75226702  6099","mean_motion":15.75226702,"eccentricity":0.0001343,"inclination_deg":97.2851,"raan_deg":351.8065,"arg_perigee_deg":89.2414,"mean_anomaly_deg":181.4753,"bstar":-0.00068733,"rev_number":609,"period_min":91.415413297127,"perigee_km":343.08337076455,"apogee_km":344.88893304315,"semimajor_km":6722.1231519039,"source":"CELESTRAK","updated_at":"2026-05-25T13:38:22.040412Z"}}}